{"data":{"norad_id":62740,"intl_designator":"2025-014F","name":"STARLINK-32805","alt_names":[],"object_type":"PAYLOAD","status":"ACTIVE","operator":null,"country":"US","launch_date":"2025-01-21","launch_site_code":"AFETR","launch_vehicle":null,"mission":null,"orbit_class":"UNKNOWN","rcs_meters":null,"size_class":null,"mass_kg":null,"dimensions":null,"purposes":["comms"],"wikipedia_slug":null,"has_3d_model":false,"image_url":null,"decayed_at":null,"tle_current":{"epoch":"2026-05-25T04:42:49.546656Z","epoch_age_seconds":58346,"freshness":"FRESH","line1":"1 62740U 25014F   26145.19640679  .00024877  00000+0  91007-3 0  9998","line2":"2 62740  43.0000  82.7108 0001151 258.1539 101.9184 15.27594937 74956","mean_motion":15.27594937,"eccentricity":0.0001151,"inclination_deg":43,"raan_deg":82.7108,"arg_perigee_deg":258.1539,"mean_anomaly_deg":101.9184,"bstar":0.00091007,"rev_number":7495,"period_min":94.265826962478,"perigee_km":482.2146522809,"apogee_km":483.7940870242,"semimajor_km":6861.1413696525,"source":"CELESTRAK","updated_at":"2026-05-25T13:38:19.738947Z"}}}